Weather History for Wisconsin Rapids, WI

Change the Weather History Date:

Sunday, April 13, 2014

  Actual Average Record
Temperature  
Mean Temperature 41 °F -  
Max Temperature 48 °F 54 °F 73 °F (1949)
Min Temperature 34 °F 32 °F 14 °F (1989)
Degree Days  
Heating Degree Days 24    
Moisture  
Dew Point 40 °F    
Average Humidity 93    
Maximum Humidity 100    
Minimum Humidity 80    
Precipitation  
Precipitation 0.88 in - - ()
Sea Level Pressure  
Sea Level Pressure 29.75 in    
Wind  
Wind Speed 9 mph (NNE)    
Max Wind Speed 23 mph    
Max Gust Speed 32 mph    
Visibility 5 miles    
Events Rain , Snow    
Averages and records for this station are not official NWS values.
T = Trace of Precipitation, MM = Missing Value Source: NWS Daily Summary

Daily Weather History Graph

Daily Weather History Graph

Search for Another Location

Airport:

Trip Planner

Search our weather history database for the weather conditions in past years. The results will help you decide how hot, cold, wet, or windy it might be!

Date:

Astronomy

Apr. 13, 2014 Rise Set
Actual Time 6:19 AM CDT 7:41 PM CDT
Civil Twilight 5:48 AM CDT 8:11 PM CDT
Nautical Twilight 5:12 AM CDT 8:48 PM CDT
Astronomical Twilight 4:34 AM CDT 9:26 PM CDT
Moon 6:16 PM CDT (4/13) 5:21 AM CDT (4/13)
Length of Visible Light 14h 22m
Length of Day
13h 22m
Waxing Gibbous, 97% of the Moon is Illuminated
Apr 13
Waxing Gibbous
Apr 15
Full
Apr 22
Last Quarter
Apr 29
New
May 6
First Quarter

Hourly Weather History & Observations

Time (CDT) Temp. Windchill Dew Point Humidity Pressure Visibility Wind Dir Wind Speed Gust Speed Precip Events Conditions
12:11 AM 39.9 °F 34.5 °F 39.9 °F 100% 29.74 in 2.0 mi ENE 8.1 mph - N/A   Overcast
12:28 AM 39.9 °F 35.1 °F 39.9 °F 100% 29.74 in 1.8 mi ENE 6.9 mph - N/A   Overcast
12:43 AM 39.9 °F 34.5 °F 39.9 °F 100% 29.76 in 2.0 mi East 8.1 mph - N/A   Overcast
12:54 AM 39.9 °F 34.5 °F 39.0 °F 97% 29.76 in 2.0 mi ENE 8.1 mph - N/A   Overcast
1:02 AM 39.9 °F 32.9 °F 39.0 °F 97% 29.73 in 1.8 mi ENE 11.5 mph - N/A   Overcast
1:54 AM 39.9 °F 33.9 °F 39.0 °F 97% 29.75 in 1.2 mi ENE 9.2 mph - 0.00 in Rain Light Rain
2:54 AM 39.9 °F 34.5 °F 39.0 °F 97% 29.73 in 2.5 mi NE 8.1 mph - 0.01 in   Overcast
3:47 AM 39.9 °F 35.8 °F 39.0 °F 97% 29.76 in 3.0 mi NNW 5.8 mph - N/A   Overcast
3:54 AM 39.9 °F 36.7 °F 39.0 °F 97% 29.79 in 4.0 mi North 4.6 mph - N/A   Overcast
4:54 AM 39.9 °F 35.1 °F 39.0 °F 97% 29.75 in 4.0 mi NNE 6.9 mph - N/A   Overcast
5:54 AM 39.9 °F 34.5 °F 37.9 °F 93% 29.78 in 6.0 mi NNE 8.1 mph - N/A   Overcast
6:02 AM 39.9 °F 35.8 °F 37.9 °F 93% 29.75 in 6.0 mi NE 5.8 mph - N/A   Overcast
6:21 AM 39.9 °F 36.7 °F 37.9 °F 93% 29.75 in 4.0 mi NE 4.6 mph - N/A   Overcast
6:35 AM 39.0 °F 34.0 °F 37.9 °F 96% 29.74 in 2.0 mi NNE 6.9 mph - N/A   Overcast
6:49 AM 39.2 °F 34.2 °F 37.4 °F 93% 29.76 in 1.5 mi North 6.9 mph - N/A   Overcast
6:54 AM 39.0 °F 35.7 °F 37.9 °F 96% 29.78 in 1.5 mi North 4.6 mph - N/A   Overcast
7:06 AM 39.9 °F 35.1 °F 37.9 °F 93% 29.76 in 1.0 mi North 6.9 mph - N/A   Overcast
7:16 AM 39.9 °F 35.8 °F 39.0 °F 97% 29.76 in 0.8 mi NNE 5.8 mph - N/A   Overcast
7:23 AM 39.9 °F 34.5 °F 39.0 °F 97% 29.76 in 1.0 mi North 8.1 mph - N/A   Overcast
7:30 AM 39.9 °F 35.1 °F 39.0 °F 97% 29.77 in 1.5 mi North 6.9 mph - N/A   Overcast
7:42 AM 39.9 °F 34.5 °F 39.0 °F 97% 29.76 in 2.5 mi NNE 8.1 mph - N/A   Overcast
7:54 AM 39.9 °F 35.8 °F 39.0 °F 97% 29.78 in 3.0 mi NNE 5.8 mph - N/A   Overcast
8:33 AM 41.0 °F 37.1 °F 39.0 °F 93% 29.78 in 10.0 mi NNE 5.8 mph - N/A   Overcast
8:45 AM 41.0 °F 37.1 °F 39.0 °F 93% 29.79 in 10.0 mi NE 5.8 mph - N/A   Overcast
8:54 AM 42.1 °F 37.1 °F 39.0 °F 89% 29.81 in 10.0 mi NNE 8.1 mph - N/A   Overcast
9:54 AM 43.0 °F 40.3 °F 39.9 °F 89% 29.80 in 10.0 mi NNE 4.6 mph - N/A   Overcast
10:54 AM 45.0 °F 42.6 °F 41.0 °F 86% 29.80 in 10.0 mi East 4.6 mph - N/A   Overcast
11:42 AM 46.0 °F 43.1 °F 41.0 °F 83% 29.83 in 9.0 mi SSW 5.8 mph - N/A   Overcast
11:54 AM 46.0 °F 43.9 °F 41.0 °F 83% 29.85 in 10.0 mi South 4.6 mph - N/A   Overcast
12:54 PM 46.9 °F - 42.1 °F 83% 29.82 in 8.0 mi NNW 3.5 mph - N/A   Overcast
1:54 PM 48.0 °F - 42.1 °F 80% 29.81 in 8.0 mi Calm Calm - N/A   Overcast
2:54 PM 48.9 °F - 43.0 °F 80% 29.79 in 10.0 mi NE 5.8 mph - N/A   Overcast
3:20 PM 48.9 °F - 44.1 °F 83% 29.75 in 10.0 mi NE 8.1 mph - 0.00 in Rain Light Rain
3:54 PM 48.9 °F - 44.1 °F 83% 29.74 in 10.0 mi NNE 10.4 mph - 0.00 in Rain Light Rain
4:54 PM 48.0 °F - 45.0 °F 89% 29.73 in 2.5 mi NNE 9.2 mph - 0.05 in Rain Rain
5:02 PM 48.0 °F - 45.0 °F 89% 29.71 in 4.0 mi NNE 10.4 mph - 0.00 in Rain Light Rain
5:34 PM 48.0 °F - 45.0 °F 89% 29.71 in 4.0 mi NNE 6.9 mph - 0.03 in Rain Light Rain
5:54 PM 46.9 °F - 45.0 °F 93% 29.73 in 3.0 mi NNE 6.9 mph - 0.06 in Rain Rain
6:51 PM 46.4 °F 41.1 °F 44.6 °F 93% 29.69 in 2.5 mi North 11.5 mph - 0.10 in Rain Rain
6:54 PM 46.0 °F 41.0 °F 44.1 °F 93% 29.71 in 2.5 mi North 10.4 mph - 0.10 in Rain Rain
7:07 PM 46.0 °F 40.2 °F 44.1 °F 93% 29.69 in 4.0 mi North 12.7 mph - 0.03 in Rain Rain
7:23 PM 46.0 °F 39.6 °F 44.1 °F 93% 29.68 in 4.0 mi North 15.0 mph - 0.07 in Rain Rain
7:43 PM 45.0 °F 37.9 °F 43.0 °F 93% 29.68 in 4.0 mi North 16.1 mph - 0.14 in Rain Rain
7:54 PM 44.1 °F 36.5 °F 42.1 °F 93% 29.70 in 5.0 mi North 17.3 mph 25.3 mph 0.17 in Rain Rain
8:44 PM 41.0 °F 32.2 °F 39.0 °F 93% 29.70 in 6.0 mi North 18.4 mph 26.5 mph 0.11 in Rain Rain
8:54 PM 39.9 °F 31.4 °F 39.0 °F 97% 29.73 in 5.0 mi North 16.1 mph 26.5 mph 0.13 in Rain Rain
9:17 PM 39.9 °F 31.1 °F 37.9 °F 93% 29.71 in 5.0 mi North 17.3 mph 26.5 mph 0.07 in Rain Rain
9:25 PM 39.0 °F 29.6 °F 37.9 °F 96% 29.71 in 5.0 mi North 18.4 mph 25.3 mph 0.09 in Rain Rain
9:54 PM 39.0 °F 28.5 °F 37.0 °F 93% 29.74 in 5.0 mi North 23.0 mph 32.2 mph 0.19 in Rain Rain
10:09 PM 37.9 °F 28.2 °F 37.0 °F 97% 29.72 in 4.0 mi North 18.4 mph 27.6 mph 0.04 in Rain Rain
10:54 PM 34.0 °F 23.4 °F 33.1 °F 96% 29.72 in 2.5 mi NNE 17.3 mph - 0.12 in Snow Light Snow
11:15 PM 34.0 °F 23.4 °F 32.0 °F 92% 29.68 in 3.0 mi North 17.3 mph - 0.02 in Snow Light Snow
11:54 PM 34.0 °F 23.8 °F 32.0 °F 92% 29.68 in 2.5 mi North 16.1 mph 31.1 mph 0.05 in Snow Light Snow